Location: Street
(51.1247°N, 2.7429°W)
Time: 02:39:24
(UTC+00:00)

Courier 1B Rocket - Pass Details

Date: 28 November 2020
Orbit: 920 x 1202 km, 28.2° (Epoch: 22 January)

Event Time Altitude Azimuth Distance (km) Brightness Sun altitude
Rises 06:44:28 0° 216° (SW) 4,085 8.1 -9.7°
Maximum altitude 06:51:47 10° 171° (S) 3,081 8.1 -8.7°
Drops below altitude 10° 06:51:47 10° 171° (S) 3,080 8.1 -8.7°
Sets 06:58:55 0° 126° (SE) 3,961 10.3 -7.6°
